Regional Weather Roundup
Issued by NWS Sioux Falls, SD

Home | Current Version | Previous Version | Text Only | Print | Product List | Glossary Off
Versions: 1 2 3 4 5 6 7 8 9 10 11 12 13 14 15 16 17 18 19 20 21 22 23 24 25 26 27 28 29 30 31 32 33 34 35 36 37 38 39 40 41 42 43 44 45 46 47 48 49 50

000
ASUS43 KFSD 031410
RWRFSD

WEATHER ROUNDUP FOR SE SOUTH DAKOTA/SW MINNESOTA/NW IOWA
NATIONAL WEATHER SERVICE SIOUX FALLS SD
900 AM CDT TUE MAY 03 2016

NOTE: "FAIR" INDICATES FEW OR NO CLOUDS BELOW 12,000 FEET WITH NO
SIGNIFICANT WEATHER AND OR OBSTRUCTIONS TO VISIBILITY.


SDZ038>040-050-052>070-031500-
SOUTHEAST SOUTH DAKOTA

CITY           SKY/WX    TMP DP  RH WIND       PRES   REMARKS
BROOKINGS      SUNNY     52  46  80 MISG      30.00F
CHAMBERLAIN    SUNNY     48  46  90 W6        30.06S
HURON          SUNNY     50  44  80 VRB6      30.03S
MADISON        FAIR      50  50 100 W8        30.02S
MITCHELL       SUNNY     50  45  83 NW8       30.05S
SIOUX FALLS    MOSUNNY   54  46  74 W9        30.02F
WINNER         FAIR      51  42  71 W9        30.07S
YANKTON        SUNNY     54  45  71 W8        30.04S
$$

MNZ071-072-080-081-089-090-097-098-031500-
SOUTHWEST MINNESOTA

CITY           SKY/WX    TMP DP  RH WIND       PRES   REMARKS
FAIRMONT       SUNNY     55  39  54 W12       29.99S
JACKSON        SUNNY     57  39  51 W8        30.00S
LUVERNE        SUNNY     52  41  66 W6        30.02S
MARSHALL       MOSUNNY   57  42  57 W14       29.99S
MONTEVIDEO     CLOUDY    57  43  58 NW9       29.98F
PIPESTONE      SUNNY     52  45  76 W5        30.01S
REDWOOD FALLS  SUNNY     57  41  55 W7        29.96F
TRACY          SUNNY     58  43  56 W7        29.99F
WINDOM         SUNNY     55  43  62 W9        30.00S
WORTHINGTON    SUNNY     55  43  63 W12       30.01F
$$

IAZ001>003-012>014-020>022-031-032-NEZ013-014-SDZ071-031500-
NORTHWEST IOWA

CITY           SKY/WX    TMP DP  RH WIND       PRES   REMARKS
CHEROKEE       SUNNY     48  48 100 CALM      30.03F
DENISON        SUNNY     52  43  71 SW5       30.03F
ESTHERVILLE    SUNNY     56  44  64 W9        30.00S
LE MARS        SUNNY     54  46  76 CALM      30.04S
ORANGE CITY    SUNNY     52  46  82 NW7       30.03S
SHELDON        SUNNY     52  43  71 W8        30.01S
SIOUX CITY     SUNNY     54  44  69 W6        30.05S
SPENCER        SUNNY     52  42  69 W5        30.02S
STORM LAKE     SUNNY     54  43  66 W9        30.03F
$$

ABBREVIATIONS USED IN REMARKS
   TC - TEMPERATURE IN CELSIUS
  WCI - WIND CHILL INDEX
   HX - HEAT INDEX
  VSB - VISIBILITY




USA.gov is the U.S. government's official web portal to all federal, state and local government web resources and services.